Regional Weather Roundup
Issued by NWS

Home | Current Version | Previous Version | Text Only | Print | Product List | Glossary On
Versions: 1 2 3 4 5 6 7 8 9 10 11 12 13 14 15 16 17 18 19 20 21 22 23 24 25 26 27
000
ASUS45 KTFX 030210
RWRMT
MONTANA REGIONAL WEATHER ROUNDUP
NATIONAL WEATHER SERVICE GREAT FALLS MT
800 PM MDT MON MAY 02 2016

NOTE: "FAIR" INDICATES FEW OR NO CLOUDS BELOW 12000 FEET WITH NO
SIGNIFICANT WEATHER AND/OR OBSTRUCTIONS TO VISIBILITY.

MTZ001>007-043-030300-
WEST OF THE DIVIDE

CITY           SKY/WX    TMP DP  RH WIND       PRES   REMARKS
KALISPELL      CLEAR     68  43  40 S7        30.06S
MISSOULA       CLEAR     71  34  25 N10       30.06F
BUTTE          CLEAR     65  16  15 W5        30.15S
MULLAN PASS    PTCLDY    56  30  37 NW6       30.19S
$$

MTZ008-052>055-030300-
SOUTHWEST MONTANA

CITY           SKY/WX    TMP DP  RH WIND       PRES   REMARKS
BOZEMAN        CLEAR     66  25  21 CALM      30.12F
DILLON         CLEAR     63  24  22 S3        30.12F
ENNIS          CLEAR     59  23  25 N10       30.19S
$$

MTZ009-010-012-014-046-048-049-054-030300-
EAST SLOPES AND CENTRAL MONTANA

CITY           SKY/WX    TMP DP  RH WIND       PRES   REMARKS
CUT BANK         N/A     67  33  28 E6        30.08S
GREAT FALLS    CLEAR     64  35  34 SE6       30.09S
HELENA         CLEAR     72  21  14 CALM      30.07F
$$

MTZ011-013-016-021-045-047-050-051-030300-
NORTH CENTRAL MONTANA

CITY           SKY/WX    TMP DP  RH WIND       PRES   REMARKS
HAVRE          CLEAR     67  46  47 S6        30.06S
LEWISTOWN      CLEAR     61  37  41 N3        30.13S
N BAR RANCH      N/A     59  30  33 N5        30.16S
$$

MTZ017>020-022>027-061-062-030300-
NORTHEAST MONTANA

CITY           SKY/WX    TMP DP  RH WIND       PRES   REMARKS
GLASGOW        CLEAR     67  41  38 N7        30.01R
JORDAN           N/A     64  44  48 NW8       30.04F
SIDNEY         CLEAR     63  34  34 N3        30.00R
WOLF POINT     PTCLDY    70  41  34 NE6       29.99R
$$

MTZ028>42-056>058-030300-
SOUTHCENTRAL AND SOUTHEAST MONTANA

CITY           SKY/WX    TMP DP  RH WIND       PRES   REMARKS
BAKER          PTCLDY    59  35  40 NE9       30.03R
BILLINGS       CLEAR     64  35  34 E8        30.11S
LIVINGSTON     CLEAR     64  31  28 E7        30.11S
MILES CITY     CLEAR     66  38  35 NW10      30.03S
$$

REGIONAL REPORTS...DAKOTAS

CITY           SKY/WX    TMP DP  RH WIND       PRES   REMARKS
WILLISTON      CLEAR     57  36  45 N3        29.98F
MINOT          CLEAR     63  35  35 SE6       29.98R
DICKINSON      CLEAR     55  33  43 NE6       30.00R
BEACH            N/A     59  28  31 E6        30.05R
CROSBY           N/A     63  30  29 N5        30.00S
WATFORD CITY     N/A     55  36  47 SE6       30.00S
BISMARCK       CLEAR     56  42  59 E6        29.99R
GRAND FORKS    PTCLDY    57  35  43 SW8       29.94S
FARGO          CLEAR     62  35  36 W13       29.96S
BUFFALO SD       N/A     57  34  41 NE9       29.96R
RAPID CITY     MOCLDY    55  40  56 N12       29.99R
$$

REGIONAL REPORTS...WYOMING/IDAHO/WASHINGTON

CITY           SKY/WX    TMP DP  RH WIND       PRES   REMARKS
GILLETTE       PTCLDY    50  36  58 NW7       30.11S
SHERIDAN       CLEAR     54  39  57 NW8       30.12S
BUFFALO WY       N/A    N/A N/A N/A MISG      30.15R
CODY           CLEAR     59  30  33 N9        30.15S
YELLOWSTONE LA   N/A     44  25  47 CALM      30.26S
IDAHO FALLS    CLEAR     66  15  14 CALM      30.16S
SALMON         CLEAR     66  36  32 W5        30.05S
BOISE          CLEAR     73  24  16 SE7       30.06F
SPOKANE        PTCLDY    76  36  23 CALM      30.04S
$$

REGIONAL REPORTS...ALBERTA

CITY           SKY/WX    TMP DP  RH WIND       PRES   REMARKS
EDMONTON       CLEAR     77  37  24 SE7       29.95S
CALGARY        PTCLDY    75  27  16 S16       30.01S
LETHBRIDGE     PTCLDY    70  37  30 S15G31    30.02F
MEDICINE HAT   PTCLDY    72  41  33 S6        30.02F
WATERTON GATE    N/A     64  34  32 SW8         N/A
CARDSTON         N/A     73  30  20 S1          N/A
MILK RIVER       N/A     66  43  42 SE6         N/A
ONEFOUR          N/A     68  45  42 W5          N/A
$$

REGIONAL REPORTS...SASKATCHEWAN

CITY           SKY/WX    TMP DP  RH WIND       PRES   REMARKS
SWIFT CURRENT  CLEAR     70  36  28 E5        30.02S
REGINA         MOCLDY    66  30  26 NE6       29.99S
SASKATOON      MOCLDY    75  36  23 CALM      29.98S
CYPRESS HILLS    N/A     64  32  29 N2          N/A
VAL MARIE        N/A     66  39  37 NE5         N/A
ROCKGLEN         N/A     64  34  32 N5          N/A
$$




USA.gov is the U.S. government's official web portal to all federal, state and local government web resources and services.